This is the latest recevied weather packets stored in our database for station/object KC5DAQ-27. If no packets are shown the sender has not sent any weather packets the latest 1 day(s).
| Time | Temp. | Humidity | Pressure | Rain* | Wind** | Luminosity | Snow |
|---|---|---|---|---|---|---|---|
| 1778014412 | 28.33° C | 78% | 998.8 hPa | 0 mm | 4.47 m/s, 0° | 452 W/m² | - |
| 1778014291 | 28.33° C | 78% | 998.8 hPa | 0 mm | 4.02 m/s, 0° | 512 W/m² | - |
| 1778014231 | 28.33° C | 78% | 998.9 hPa | 0 mm | 4.47 m/s, 0° | 524 W/m² | - |
| 1778014172 | 28.33° C | 79% | 998.9 hPa | 0 mm | 3.58 m/s, 0° | 512 W/m² | - |
| 1778014111 | 28.33° C | 78% | 998.8 hPa | 0 mm | 3.13 m/s, 0° | 438 W/m² | - |
| 1778014051 | 28.89° C | 78% | 998.9 hPa | 0 mm | 3.58 m/s, 0° | 360 W/m² | - |
| 1778014003 | 28.89° C | 78% | 998.8 hPa | 0 mm | 4.02 m/s, 0° | 399 W/m² | - |
| 1778013931 | 28.89° C | 78% | 999 hPa | 0 mm | 4.47 m/s, 0° | 549 W/m² | - |
| 1778013871 | 28.89° C | 78% | 998.9 hPa | 0 mm | 4.47 m/s, 0° | 946 W/m² | - |
| 1778013812 | 28.89° C | 78% | 998.9 hPa | 0 mm | 4.02 m/s, 0° | 559 W/m² | - |
| 1778013752 | 28.89° C | 78% | 999 hPa | 0 mm | 3.13 m/s, 0° | 612 W/m² | - |
| 1778013691 | 28.89° C | 78% | 998.9 hPa | 0 mm | 3.58 m/s, 0° | 659 W/m² | - |
| 1778013631 | 28.89° C | 78% | 999 hPa | 0 mm | 4.02 m/s, 0° | 709 W/m² | - |
| 1778013572 | 28.89° C | 79% | 999 hPa | 0 mm | 3.58 m/s, 0° | 881 W/m² | - |
| 1778013511 | 28.89° C | 78% | 999 hPa | 0 mm | 3.58 m/s, 0° | 832 W/m² | - |
| 1778013451 | 28.89° C | 78% | 999 hPa | 0 mm | 3.58 m/s, 0° | 443 W/m² | - |
| 1778013393 | 28.89° C | 79% | 999 hPa | 0 mm | 4.02 m/s, 0° | 359 W/m² | - |
| 1778013332 | 28.89° C | 79% | 999 hPa | 0 mm | 3.58 m/s, 0° | 390 W/m² | - |
| 1778013272 | 28.89° C | 79% | 999 hPa | 0 mm | 3.58 m/s, 0° | 700 W/m² | - |
| 1778013211 | 28.89° C | 79% | 999.1 hPa | 0 mm | 3.58 m/s, 0° | 568 W/m² | - |
| 1778013152 | 28.33° C | 79% | 999.1 hPa | 0 mm | 3.13 m/s, 0° | 1206 W/m² | - |
| 1778013091 | 28.33° C | 79% | 999.2 hPa | 0 mm | 3.13 m/s, 0° | 941 W/m² | - |
| 1778013031 | 28.33° C | 79% | 999.2 hPa | 0 mm | 3.13 m/s, 0° | 1182 W/m² | - |
| 1778012972 | 28.33° C | 79% | 999.2 hPa | 0 mm | 3.13 m/s, 0° | 512 W/m² | - |
| 1778012911 | 28.33° C | 79% | 999.3 hPa | 0 mm | 3.58 m/s, 0° | 637 W/m² | - |
* Rain latest hour (hover to see other rain measurements)
** Current wind speed in m/s (hover to see current wind gust speed)